Location: Carri�res
(48.9069°N, 2.1792°E)
Time: 21:46:54
(UTC+00:00)

deb Kosmos- 1898 - Pass Details

Date: 03 August 2021
Orbit: 732 x 754 km, 74.0° (Epoch: 27 September)

Event Time Altitude Azimuth Distance (km) Brightness Sun altitude
Exits shadow 02:26:36 24° 236° (SW) 1,500 ? -15.8°
Maximum altitude 02:29:24 49° 299° (WNW) 966 ? -15.5°
Drops below altitude 10° 02:34:24 10° 15° (NNE) 2,282 ? -15.0°
Sets 02:36:52 0° 21° (NNE) 3,213 ? -14.8°
